{"data":{"norad_id":68983,"intl_designator":"2026-100D","name":"IRIDE-MS2-HEO-11","alt_names":[],"object_type":"PAYLOAD","status":"ACTIVE","operator":null,"country":"IT","launch_date":"2026-05-03","launch_site_code":"AFWTR","launch_vehicle":null,"mission":null,"orbit_class":"UNKNOWN","rcs_meters":null,"size_class":null,"mass_kg":null,"dimensions":null,"purposes":[],"wikipedia_slug":null,"has_3d_model":false,"image_url":null,"decayed_at":null,"tle_current":{"epoch":"2026-05-25T03:20:40.913088Z","epoch_age_seconds":59084,"freshness":"FRESH","line1":"1 68983U 26100D   26145.13936242  .00001377  00000+0  14384-3 0  9991","line2":"2 68983  97.7406  43.0151 0002819 195.0974 165.0161 14.91297077  3266","mean_motion":14.91297077,"eccentricity":0.0002819,"inclination_deg":97.7406,"raan_deg":43.0151,"arg_perigee_deg":195.0974,"mean_anomaly_deg":165.0161,"bstar":0.00014384,"rev_number":326,"period_min":96.560237541457,"perigee_km":591.92463814302,"apogee_km":595.85546699526,"semimajor_km":6972.0270525691,"source":"CELESTRAK","updated_at":"2026-05-25T13:38:08.807252Z"}}}